Vorticity
nan nan nan nan nan nan nan nan nan nan nan nan nan nan nan nan nan nan nan nan nan nan nan nan nan nan nan nan nan nan nan nan nan nan nan nan nan nan nan nan nan nan nan
nan 9 9 10 11 11 16 15 11 5 6 10 6 8 9 9 9 9 7 12 6 9 8 8 8 8 8 8 9 12 11 15 9 4 8 10 8 11 12 11 10 8 nan
nan 9 10 10 10 10 10 17 12 8 6 8 13 8 7 10 8 9 11 12 13 9 7 7 8 9 9 8 8 9 9 13 12 8 3 8 10 9 12 11 8 7 nan
nan 9 9 9 10 11 12 12 8 9 4 5 10 10 11 8 8 7 7 4 14 10 8 7 9 9 8 7 8 10 9 9 11 11 5 6 12 8 9 11 11 10 nan
nan 10 9 10 11 11 14 7 3 6 12 11 7 5 8 8 9 8 7 10 5 5 8 9 9 9 8 7 7 8 11 11 9 11 11 4 4 8 11 10 9 9 nan
nan 8 10 10 11 11 10 8 10 5 8 10 9 9 8 8 9 9 11 9 8 9 4 8 10 9 8 9 8 8 9 9 10 10 14 13 7 6 5 10 12 10 nan
nan 8 9 10 9 9 9 9 7 11 11 9 9 9 8 10 11 8 9 7 9 7 6 9 10 8 9 10 9 10 11 10 8 9 9 15 12 8 8 5 9 9 nan
nan 10 10 10 8 9 9 10 7 9 11 9 9 9 12 12 8 10 9 10 9 7 8 9 10 10 9 9 10 10 9 9 9 10 11 16 14 8 11 7 6 8 nan
nan 10 10 11 9 9 9 9 7 9 10 10 10 8 8 11 9 10 11 10 7 9 9 11 10 10 9 10 11 11 11 11 11 10 12 15 13 11 9 11 11 10 nan
nan 10 11 10 10 9 8 8 8 8 10 9 10 10 10 8 9 10 10 10 9 11 9 11 11 8 9 10 12 11 10 12 11 10 11 13 19 16 10 9 9 9 nan
nan 10 10 8 10 11 9 7 8 8 10 9 9 8 8 8 12 12 11 9 9 8 12 10 9 9 10 9 11 11 10 10 9 9 12 9 14 15 15 13 11 7 nan
nan 10 10 10 9 8 9 10 8 9 7 10 10 9 7 11 10 10 10 9 7 8 12 10 9 10 9 9 10 10 10 10 8 10 11 10 11 11 11 12 11 15 nan
nan 8 9 10 12 10 9 9 8 10 8 10 8 8 8 9 8 8 10 11 6 10 11 9 9 11 8 9 10 10 10 10 7 10 10 10 11 11 9 11 9 10 nan
nan 9 8 10 11 10 9 9 10 8 9 8 10 10 7 8 10 8 8 7 9 10 9 10 11 9 6 8 9 11 13 10 9 9 8 10 10 11 11 11 10 11 nan
nan 9 9 9 9 11 12 10 10 7 8 7 8 9 10 10 8 6 9 9 12 10 9 10 11 9 8 7 9 12 10 9 9 10 9 7 6 8 15 12 13 15 nan
nan 9 9 9 10 11 10 11 11 8 8 9 8 8 9 11 7 6 8 11 11 9 10 10 9 11 5 5 11 13 9 9 11 9 10 7 5 7 12 12 12 13 nan
nan 9 10 10 11 11 12 12 11 10 6 8 8 8 10 8 10 8 8 11 9 10 9 9 12 8 3 6 9 14 14 9 8 9 11 10 6 9 11 11 8 4 nan
nan 11 11 11 11 11 10 9 10 9 8 8 8 8 9 11 9 8 10 9 9 10 9 10 10 7 7 5 7 19 18 9 9 8 11 10 8 7 14 15 8 6 nan
nan 12 11 11 10 10 10 9 9 8 8 9 10 9 9 9 6 10 11 9 9 9 11 9 8 10 7 5 8 16 18 15 7 5 8 11 6 3 18 21 10 9 nan
nan 10 10 10 9 10 10 8 8 9 9 9 11 10 8 8 9 10 8 9 9 9 9 8 12 11 3 4 9 15 18 13 10 8 1 4 8 8 13 16 12 8 nan
nan 9 9 8 10 10 9 8 9 8 9 11 11 9 9 9 10 9 10 7 9 10 9 9 9 9 9 6 4 11 16 8 11 13 7 2 2 7 11 13 10 7 nan
nan 8 8 9 9 9 9 9 9 10 10 10 9 10 10 8 11 11 8 10 9 9 11 9 11 12 11 6 6 7 7 10 14 11 11 5 3 5 7 6 10 14 nan
nan 10 10 9 10 11 8 8 9 10 11 10 9 10 10 10 10 9 10 11 10 9 10 12 11 11 11 11 9 5 5 8 11 11 8 5 7 10 11 7 9 16 nan
nan 11 10 10 10 10 9 10 10 10 10 9 10 10 10 11 9 9 11 9 10 10 10 11 11 11 9 12 12 11 11 11 11 7 9 10 10 11 12 17 13 10 nan
nan 11 11 11 10 10 10 10 10 9 11 10 10 10 11 11 9 9 10 9 10 12 11 13 11 13 14 12 12 12 11 11 10 11 14 13 12 12 12 10 9 9 nan
nan nan nan nan nan nan nan nan nan nan nan nan nan nan nan nan nan nan nan nan nan nan nan nan nan nan nan nan nan nan nan nan nan nan nan nan nan nan nan nan nan nan nan
CAPE
0 0 0 0 0 6 18 35 62 82 2 22 7 1 44 56 28 13 99 50 24 0 0 0 6 3 6 7 10 8 2 4 0 5 21 1 0 0 0 61 32 8 7
0 0 0 0 0 0 13 35 50 3 39 30 44 27 80 62 58 51 46 90 54 1 0 0 4 7 6 7 9 7 5 8 0 0 1 5 0 1 14 51 23 16 6
0 0 0 0 0 0 0 2 16 32 81 50 65 98 116 93 59 18 2 80 65 22 0 0 9 8 7 6 7 7 5 4 5 0 0 5 0 0 55 54 37 42 4
0 0 0 0 0 0 0 0 11 44 45 175 80 154 111 53 52 37 48 47 22 30 9 1 20 17 3 7 5 9 7 5 3 5 0 0 4 0 61 60 50 45 24
0 0 0 0 0 0 4 8 12 40 57 85 128 140 122 80 55 52 42 33 8 27 12 8 18 21 0 5 4 4 4 6 5 4 12 0 0 2 32 47 78 62 34
0 0 0 0 0 0 0 14 13 12 54 77 125 112 124 95 66 46 26 4 0 4 3 22 13 29 0 4 4 4 4 5 4 4 6 2 0 0 0 17 41 65 59
0 0 0 0 0 0 0 2 11 12 27 60 90 103 85 80 67 60 41 19 10 4 11 19 18 16 11 1 5 3 4 4 3 3 4 4 6 0 0 0 1 23 59
0 0 0 0 0 0 0 3 2 9 30 47 51 63 75 47 57 50 40 40 29 16 26 22 16 13 17 3 3 4 2 3 2 1 4 2 3 4 5 0 0 16 13
0 0 0 0 0 0 1 6 3 6 27 35 47 60 52 57 56 55 40 39 39 25 16 14 24 8 7 9 3 3 3 4 4 3 6 3 3 3 0 0 0 0 5
0 0 0 0 0 0 0 10 6 12 21 25 23 13 24 48 54 44 41 43 34 26 18 15 17 6 1 6 3 5 2 4 3 3 3 3 3 10 5 0 0 2 19
0 0 0 0 0 0 0 0 5 7 15 20 18 26 30 21 45 47 50 44 17 9 20 12 8 3 3 4 3 4 3 3 2 2 3 1 1 2 1 2 1 5 16
0 0 0 0 0 0 0 0 1 8 2 14 29 31 23 37 43 37 2 48 1 6 16 19 1 5 2 0 5 3 6 2 3 4 2 1 2 2 1 1 0 3 13
0 0 0 0 0 0 0 0 0 0 0 7 20 21 8 32 26 40 31 40 4 8 20 14 10 4 0 0 0 4 5 3 3 5 3 3 1 1 1 1 1 1 3
0 0 0 0 0 0 0 0 0 0 0 3 18 24 7 9 22 22 33 34 15 11 11 9 5 1 0 0 0 0 2 3 3 3 4 2 3 1 1 1 2 1 1
0 0 0 0 0 0 0 0 0 0 0 0 2 16 23 12 17 12 11 27 26 13 11 1 6 0 0 0 0 0 4 0 1 2 1 0 1 1 0 1 1 1 1
0 0 0 0 0 0 0 0 0 0 0 0 0 0 10 17 8 4 0 25 20 17 0 2 6 0 0 0 0 0 4 0 0 0 0 0 0 0 0 0 0 0 1
0 0 0 0 0 0 0 0 0 0 0 0 0 0 0 7 1 0 1 12 12 1 5 10 6 0 0 0 0 0 0 0 0 0 0 0 0 0 0 0 0 0 0
0 0 0 0 0 0 0 0 0 0 0 0 0 0 0 0 7 0 11 12 6 1 0 0 0 4 0 0 0 0 0 0 0 0 0 0 0 0 0 0 1 1 1
0 0 0 0 0 0 0 0 0 0 0 0 0 0 0 0 6 10 6 7 2 0 0 0 0 0 0 0 0 0 0 0 0 0 0 0 0 0 0 1 0 0 1
0 0 0 0 0 0 0 0 0 0 0 0 0 0 0 0 0 4 2 3 1 0 0 0 0 0 0 0 0 0 0 0 0 0 0 0 0 0 0 0 0 0 0
0 0 0 0 0 0 0 0 0 0 0 0 0 0 0 0 0 4 1 1 0 0 0 0 0 0 0 0 0 0 0 0 0 0 0 0 0 0 0 0 0 0 0
0 0 0 0 0 0 0 0 0 0 0 0 0 0 0 0 0 0 0 1 0 0 0 0 0 0 0 0 0 0 0 0 0 0 0 0 0 0 0 0 0 0 0
0 0 0 0 0 0 0 0 0 0 0 0 0 0 0 0 0 0 0 0 0 0 0 0 0 0 0 0 0 0 0 0 0 0 0 0 0 0 0 0 0 0 0
0 0 0 0 0 0 0 0 0 0 0 0 0 0 0 0 0 0 0 0 0 0 0 0 0 0 0 0 0 0 0 0 0 0 0 0 0 0 0 0 0 0 0
0 0 0 0 0 0 0 0 0 0 0 0 0 0 0 0 0 0 0 0 0 0 0 0 0 0 0 0 0 0 0 0 0 0 0 0 0 0 0 0 0 0 0
0 0 0 0 0 0 0 0 0 0 0 0 0 0 0 0 0 0 0 0 0 0 0 0 0 0 0 0 0 0 0 0 0 0 0 0 0 0 0 0 0 0 0